This is the latest recevied weather packets stored in our database for station/object OM8AKX-4. If no packets are shown the sender has not sent any weather packets the latest 10 day(s).
| Time | Temp. | Humidity | Pressure | Rain* | Wind** | Luminosity | Snow |
|---|---|---|---|---|---|---|---|
| 1777982230 | 16.11° C | 38% | 875.1 hPa | - | - | - | - |
| 1777981330 | 16.11° C | 38% | 875.2 hPa | - | - | - | - |
| 1777980430 | 15.56° C | 38% | 875.2 hPa | - | - | - | - |
| 1777979530 | 15.56° C | 41% | 875.4 hPa | - | - | - | - |
| 1777978629 | 15.56° C | 42% | 875.5 hPa | - | - | - | - |
| 1777977729 | 15° C | 42% | 875.7 hPa | - | - | - | - |
| 1777976829 | 15° C | 41% | 875.7 hPa | - | - | - | - |
| 1777975929 | 15° C | 41% | 875.7 hPa | - | - | - | - |
| 1777975029 | 14.44° C | 40% | 875.7 hPa | - | - | - | - |
| 1777974129 | 14.44° C | 42% | 875.7 hPa | - | - | - | - |
| 1777973229 | 13.89° C | 40% | 875.7 hPa | - | - | - | - |
| 1777972329 | 13.89° C | 40% | 875.7 hPa | - | - | - | - |
| 1777971428 | 13.89° C | 41% | 875.7 hPa | - | - | - | - |
| 1777970528 | 13.89° C | 40% | 875.7 hPa | - | - | - | - |
| 1777969628 | 13.89° C | 42% | 875.7 hPa | - | - | - | - |
| 1777968728 | 13.89° C | 42% | 875.8 hPa | - | - | - | - |
| 1777967828 | 13.89° C | 41% | 875.8 hPa | - | - | - | - |
| 1777966928 | 13.89° C | 41% | 875.9 hPa | - | - | - | - |
| 1777966028 | 13.89° C | 40% | 875.9 hPa | - | - | - | - |
| 1777965128 | 13.89° C | 39% | 875.8 hPa | - | - | - | - |
| 1777964228 | 13.89° C | 40% | 875.8 hPa | - | - | - | - |
| 1777963328 | 13.89° C | 39% | 875.7 hPa | - | - | - | - |
| 1777962428 | 14.44° C | 38% | 875.9 hPa | - | - | - | - |
| 1777961528 | 14.44° C | 37% | 875.7 hPa | - | - | - | - |
| 1777960628 | 15° C | 36% | 875.6 hPa | - | - | - | - |
* Rain since midnight (hover to see other rain measurements)
** Current wind speed in m/s (hover to see current wind gust speed)